Content
SEND FEEDBACK

Brazil Flag

RECIFE, PERNAMBUCO


Home > South America > Brazil > Pernambuco
Elevation: 18 meters     Latitude: 08 04S     Longitude: 034 51W

WEATHER
 
SELECT A DAY
Number of Records: 208,931;   Date Range: 6/30/96 - 3/22/16
 
SHARE

PRINT THIS DATA

[ ← Previous Day ]
WEATHER ALMANAC - 13 FEBRUARY, 2013
[ Next Day → ]
[ °F ]   °C
Weather ElementAverageHighLow
Temperature28.4 °C32 °C (11:00 am)26 °C (2:00 am)
Dewpoint20.7 °C22 °C (10:00 am)20 °C (12:00 am)
Humidity60.9 %70 % (9:00 pm)46 % (12:00 pm)
Barometer1011.5 hPa1013.2 hPa (10:00 am)1010.2 hPa (1:00 am)
Wind Speed19.8 km/h29.6 km/h (2:00 pm)
Weather ElementAverage
Visibility12.1 km
Wind DirectionSSE (153.2 °)

Weather ElementTotal
Precipitation---
Cooling Degree Days10.7 (Base 18.3)
Growing Degree Days19 (Base 10)
Averaged from 31 records on 13 February, 2013
WEATHER CONDITIONS BREAKOUT
WIND DIRECTION BREAKOUT
WEATHER BY HOUR - 13 FEBRUARY, 2013
[ °F ]   °C
Local TimeTemperatureDewpointHumidityBarometerVisibilityWind DirectionWind SpeedGust SpeedPrecipitationEventsConditions
12:00 AM27 °C20 °C65 %1011.2 hPa10 kmSouth (170°)14.8 km/hPartly Cloudy
1:00 AM27 °C20 °C65 %1010.2 hPa10 kmSouth (180°)14.8 km/hScattered Clouds
2:00 AM26 °C20 °C69 %1010.2 hPa10 kmSouth (180°)14.8 km/hScattered Clouds
3:00 AM26.1 °C20 °C60 %1010.5 hPa19.3 kmSSE (160°)13 km/hPartly Cloudy
3:00 AM26 °C20 °C69 %1010.2 hPa10 kmSSE (160°)13 km/hScattered Clouds
4:00 AM26 °C20 °C69 %1010.2 hPa10 kmSouth (170°)14.8 km/hScattered Clouds
5:00 AM26 °C20 °C69 %1011.2 hPa10 kmSSE (160°)13 km/hScattered Clouds
6:00 AM27 °C20 °C65 %1011.2 hPa10 kmSouth (180°)13 km/hScattered Clouds
6:00 AM26.7 °C20 °C58 %1011.5 hPa19.3 kmSouth (180°)13 km/hPartly Cloudy
7:00 AM27 °C20 °C65 %1010.2 hPa10 kmSouth (170°)16.7 km/hScattered Clouds
8:00 AM28 °C21 °C66 %1012.2 hPa10 kmSSE (150°)18.5 km/hScattered Clouds
9:00 AM30 °C21.1 °C49 %1012.9 hPa19.3 kmSSE (150°)22.2 km/hMostly Cloudy
9:00 AM30 °C21 °C58 %1012.2 hPa10 kmSSE (150°)22.2 km/hMostly Cloudy
10:00 AM31 °C22 °C58 %1013.2 hPa10 kmSE (140°)25.9 km/hMostly Cloudy
11:00 AM32 °C22 °C55 %1012.2 hPa10 kmSSE (160°)27.8 km/hScattered Clouds
12:00 PM32 °C22 °C55 %1012.2 hPa10 kmSSE (150°)25.9 km/hScattered Clouds
12:00 PM31.7 °C21.7 °C46 %1012.2 hPa19.3 kmSSE (150°)25.9 km/hPartly Cloudy
1:00 PM31 °C21 °C55 %1011.2 hPa10 kmSE (140°)27.8 km/hScattered Clouds
2:00 PM31 °C20 °C52 %1011.2 hPa10 kmSE (140°)29.6 km/hScattered Clouds
3:00 PM30.6 °C21.1 °C47 %1010.8 hPa19.3 kmSSE (160°)25.9 km/hPartly Cloudy
3:00 PM31 °C21 °C55 %1010.2 hPa10 kmSSE (160°)25.9 km/hScattered Clouds
4:00 PM30 °C20 °C55 %1010.2 hPa10 kmSE (140°)25.9 km/hScattered Clouds
5:00 PM29 °C20 °C58 %1010.2 hPa10 kmSSE (150°)18.5 km/hPartly Cloudy
6:00 PM28 °C21 °C66 %1011.2 hPa10 kmSSE (150°)22.2 km/hPartly Cloudy
6:00 PM28.3 °C21.1 °C56 %1011.2 hPa19.3 kmSSE (150°)22.2 km/hScattered Clouds
7:00 PM28 °C21 °C66 %1011.2 hPa10 kmSE (140°)18.5 km/hPartly Cloudy
8:00 PM28 °C21 °C66 %1012.2 hPa10 kmSE (130°)16.7 km/hPartly Cloudy
9:00 PM27.2 °C21.1 °C61 %1012.9 hPa19.3 kmSE (140°)18.5 km/hPartly Cloudy
9:00 PM27 °C21 °C70 %1012.2 hPa10 kmSE (140°)18.5 km/hScattered Clouds
10:00 PM27 °C21 °C70 %1012.2 hPa10 kmESE (120°)18.5 km/hScattered Clouds
11:00 PM27 °C21 °C70 %1012.2 hPa10 kmSE (130°)16.7 km/hScattered Clouds
Hourly data recorded from SBRF, located 0 kilometers away from Recife, Pernambuco




STORIES FROM OUR PARTNERS